1484852400.83,7530,2.5,74096.8,-9.19,-38.35,-38.35,0,*60
1484852402.1,7531,2.5,74098.0,-9.19,-38.29,-38.49,0,*67
1484852403.34,7532,2.5,74100.0,-9.19,-38.29,-38.35,0,*6F
1484852404.59,7533,2.5,74100.8,-9.19,-38.11,-37.93,0,*66
1484852405.83,7534,2.5,74098.3,-9.19,-38.35,-38.49,0,*6F
1484852407.06,7535,2.44,74092.0,-9.19,-38.11,-38.17,0,*63
1484852408.3,7536,2.44,74090.8,-9.19,-38.17,-38.29,0,*6B
1484852409.54,7537,2.5,74096.3,-9.19,-38.17,-38.29,0,*6A
1484852410.83,7538,2.5,74100.8,-9.21,-38.29,-38.49,0,*65
1484852412.06,7539,2.5,74094.5,-9.21,-38.17,-38.35,0,*62
1484852413.27,7540,2.5,74096.3,-9.19,-38.17,-38.35,0,*67
1484852414.51,7541,2.5,74100.5,-9.19,-38.35,-38.49,0,*6D
1484852415.72,7542,2.5,74106.3,-9.19,-38.17,-38.17,0,*65
1484852416.97,7543,2.5,74094.8,-9.19,-38.11,-38.11,0,*64
1484852418.21,7544,2.5,74096.0,-9.21,-38.17,-38.35,0,*68
1484852419.45,7545,2.5,74100.5,-9.19,-38.29,-38.35,0,*6F
1484852420.66,7546,2.5,74098.5,-9.19,-38.17,-38.35,0,*61
1484852421.87,7547,2.5,74096.8,-9.19,-38.35,-38.35,0,*60
1484852423.13,7548,2.5,74096.5,-9.21,-38.35,-38.49,0,*6F
1484852424.42,7549,2.5,74092.8,-9.21,-38.49,-38.49,0,*65
1484852425.65,7550,2.5,74094.8,-9.21,-38.35,-38.35,0,*6D
1484852426.88,7551,2.5,74098.8,-9.19,-38.35,-38.49,0,*6C
1484852428.11,7552,2.5,74094.3,-9.17,-38.05,-38.05,0,*6A
1484852429.39,7553,2.5,74092.5,-9.21,-38.11,-37.93,0,*6B
1484852430.68,7554,2.5,74094.0,-9.21,-38.29,-38.29,0,*69
1484852431.89,7555,2.5,74094.5,-9.19,-38.17,-38.17,0,*63
1484852433.16,7556,2.5,74094.8,-9.19,-38.29,-38.29,0,*60
1484852434.39,7557,2.5,74094.8,-9.19,-38.11,-38.17,0,*67
1484852435.63,7558,2.5,74094.0,-9.19,-38.29,-38.17,0,*63
1484852436.9,7559,2.5,74096.3,-9.21,-38.11,-38.11,0,*64
1484852438.18,7560,2.5,74090.8,-9.21,-38.11,-37.93,0,*6B
1484852439.47,7561,2.5,74094.5,-9.21,-37.99,-37.93,0,*65
1484852440.72,7562,2.5,74094.3,-9.21,-38.17,-37.93,0,*6F
1484852441.93,7563,2.5,74092.3,-9.19,-38.35,-38.35,0,*66
1484852443.15,7564,2.5,74092.5,-9.19,-37.87,-37.57,0,*6C
1484852444.39,7565,2.5,74088.0,-9.19,-37.87,-37.69,0,*60
1484852445.63,7566,2.5,74098.5,-9.19,-37.99,-37.87,0,*6C
1484852446.86,7567,2.5,74096.8,-9.19,-38.35,-38.29,0,*6F
1484852448.1,7568,2.5,74098.0,-9.19,-38.35,-38.29,0,*60
1484852449.36,7569,2.5,74102.0,-9.19,-38.11,-38.29,0,*67
1484852450.6,7570,2.5,74096.5,-9.19,-37.99,-37.75,0,*66
1484852451.83,7571,2.5,74100.0,-9.19,-38.11,-37.87,0,*65
1484852453.07,7572,2.5,74100.5,-9.17,-38.05,-37.87,0,*6D
1484852454.28,7573,2.5,74098.8,-9.19,-38.35,-38.17,0,*67
1484852455.49,7574,2.5,74102.5,-9.19,-38.17,-38.17,0,*60
1484852456.7,7575,2.5,74100.0,-9.19,-38.17,-38.17,0,*61
1484852457.98,7576,2.5,74094.5,-9.17,-38.29,-38.23,0,*66
1484852459.19,7577,2.5,74098.3,-9.19,-38.35,-38.35,0,*63
1484852460.43,7578,2.5,74094.8,-9.19,-38.29,-38.17,0,*61
1484852461.64,7579,2.5,74096.0,-9.19,-38.35,-38.35,0,*6D
1484852462.92,7580,2.5,74098.0,-9.21,-38.29,-38.11,0,*6B
1484852464.19,7581,2.5,74098.0,-9.19,-38.29,-38.29,0,*6A
1484852465.46,7582,2.5,74098.0,-9.19,-38.29,-38.29,0,*69
1484852466.71,7583,2.5,74098.0,-9.19,-38.11,-38.11,0,*68
1484852467.97,7584,2.5,74098.3,-9.21,-38.35,-38.29,0,*69
1484852469.23,7585,2.5,74098.3,-9.19,-38.29,-38.11,0,*65
1484852470.47,7586,2.5,74096.8,-9.19,-38.35,-38.29,0,*60
1484852471.68,7587,2.5,74096.3,-9.19,-38.35,-38.35,0,*6C
1484852472.92,7588,2.5,74092.3,-9.19,-38.17,-38.29,0,*6E
1484852474.18,7589,2.5,74100.0,-9.19,-38.29,-38.29,0,*62
1484852475.39,7590,2.5,74096.5,-9.19,-38.35,-38.35,0,*6A
1484852476.65,7591,2.5,74096.0,-9.21,-38.11,-37.87,0,*60
1484852477.86,7592,2.5,74098.3,-9.19,-38.17,-38.17,0,*68
1484852479.13,7593,2.5,74096.3,-9.19,-38.29,-38.29,0,*69
1484852480.37,7594,2.5,74098.8,-9.19,-38.29,-38.17,0,*63
1484852481.63,7595,2.5,74092.8,-9.19,-38.29,-38.11,0,*64
1484852482.88,7596,2.5,74094.8,-9.19,-38.11,-37.93,0,*69
1484852484.11,7597,2.5,74092.8,-9.19,-38.17,-38.11,0,*6B
1484852485.4,7598,2.5,74094.3,-9.17,-38.11,-38.23,0,*6D
1484852486.63,7599,2.5,74102.5,-9.17,-38.05,-38.05,0,*6D
1484852487.89,7600,2.5,74096.3,-9.15,-38.43,-38.23,0,*6A
1484852489.1,7601,2.5,74092.8,-9.19,-38.55,-38.55,0,*61
1484852490.37,7602,2.5,74098.5,-9.19,-38.29,-38.29,0,*62
1484852491.63,7603,2.5,74096.0,-9.21,-38.29,-38.17,0,*65
1484852492.84,7604,2.5,74104.0,-9.19,-38.17,-38.17,0,*64
1484852494.1,7605,2.5,74100.5,-9.19,-38.29,-38.11,0,*6E
1484852495.31,7606,2.5,74098.3,-9.19,-38.17,-38.17,0,*66
1484852496.51,7607,2.5,74096.8,-9.19,-38.35,-38.17,0,*67
1484852497.75,7608,2.5,74094.5,-9.19,-38.29,-38.17,0,*65
1484852498.99,7609,2.5,74094.0,-9.19,-38.35,-38.29,0,*64
1484852500.2,7610,2.5,74088.8,-9.19,-38.17,-37.87,0,*67
1484852501.44,7611,2.5,74090.0,-9.19,-38.35,-38.29,0,*6D
1484852502.7,7612,2.5,74094.8,-9.19,-38.29,-38.29,0,*63
1484852503.96,7613,2.5,74102.0,-9.19,-38.29,-38.11,0,*69
1484852505.22,7614,2.5,74092.3,-9.19,-38.11,-38.11,0,*65
1484852506.46,7615,2.5,74088.5,-9.19,-37.99,-37.87,0,*6B
1484852507.74,7616,2.5,74094.5,-9.21,-38.11,-37.93,0,*69
1484852508.97,7617,2.5,74094.8,-9.19,-38.11,-37.87,0,*66
1484852510.21,7618,2.5,74096.5,-9.19,-37.99,-37.75,0,*6B
1484852511.42,7619,2.5,74090.5,-9.19,-38.17,-38.17,0,*68
1484852512.62,7620,2.5,74092.5,-9.19,-38.35,-38.17,0,*62
1484852513.86,7621,2.5,74098.0,-9.19,-38.29,-38.17,0,*6E
1484852515.09,7622,2.5,74094.8,-9.19,-38.17,-37.93,0,*63
1484852516.33,7623,2.5,74094.5,-9.19,-38.29,-38.17,0,*6C
1484852517.6,7624,2.5,74092.5,-9.19,-38.49,-38.29,0,*60
1484852518.87,7625,2.5,74094.0,-9.19,-38.29,-38.29,0,*67
1484852520.1,7626,2.5,74096.3,-9.19,-38.35,-38.29,0,*69
1484852521.32,7627,2.5,74090.5,-9.19,-38.55,-38.35,0,*63
1484852522.57,7628,2.5,74088.5,-9.17,-38.23,-38.05,0,*60
1484852523.81,7629,2.5,74088.8,-9.19,-38.29,-38.17,0,*66
1484852525.06,7630,2.5,74096.5,-9.19,-38.11,-37.93,0,*66
1484852526.3,7631,2.5,74098.3,-9.19,-38.11,-37.75,0,*6F
1484852527.53,7632,2.5,74092.3,-9.19,-37.99,-37.57,0,*63
1484852528.77,7633,2.5,74088.5,-9.19,-37.93,-37.87,0,*65
1484852530.0,7634,2.5,74096.3,-9.19,-38.17,-38.11,0,*61
1484852531.24,7635,2.5,74092.0,-9.19,-38.17,-38.11,0,*60
1484852532.51,7636,2.5,74088.5,-9.15,-38.23,-38.11,0,*68
1484852533.8,7637,2.5,74086.0,-9.17,-38.29,-38.11,0,*61
1484852535.05,7638,2.5,74084.3,-9.19,-38.11,-37.93,0,*6E
1484852536.34,7639,2.5,74092.5,-9.17,-38.29,-38.23,0,*6E
1484852537.58,7640,2.5,74090.5,-9.17,-38.05,-37.87,0,*6F
1484852538.81,7641,2.5,74088.0,-9.17,-38.05,-38.05,0,*6B
1484852540.08,7642,2.5,74092.0,-9.17,-38.49,-38.43,0,*62
1484852541.34,7643,2.5,74094.5,-9.17,-38.49,-38.43,0,*63
1484852542.58,7644,2.5,74092.5,-9.17,-38.61,-38.43,0,*6E
1484852543.86,7645,2.5,74084.0,-9.17,-38.23,-38.11,0,*6E
1484852545.13,7646,2.5,74088.5,-9.19,-38.49,-38.49,0,*62
1484852546.37,7647,2.5,74086.3,-9.19,-38.49,-38.17,0,*68
1484852547.62,7648,2.5,74086.8,-9.17,-38.05,-37.93,0,*62
1484852548.89,7649,2.5,74086.8,-9.17,-38.05,-37.81,0,*60
1484852550.15,7650,2.5,74084.0,-9.17,-38.11,-37.87,0,*6B
1484852551.42,7651,2.5,74086.8,-9.17,-37.87,-37.63,0,*60
1484852552.67,7652,2.5,74078.5,-9.17,-38.05,-37.69,0,*6C
1484852553.96,7653,2.5,74072.8,-9.17,-37.93,-37.81,0,*6B
1484852555.19,7654,2.5,74074.3,-9.15,-37.87,-37.45,0,*63
1484852556.47,7655,2.5,74084.8,-9.15,-38.11,-37.69,0,*6C
1484852557.73,7656,2.5,74090.3,-9.15,-38.05,-37.81,0,*6C
1484852558.99,7657,2.5,74092.5,-9.17,-38.11,-37.87,0,*6C
1484852560.25,7658,2.5,74094.0,-9.17,-38.43,-38.23,0,*65
1484852561.54,7659,2.5,74092.0,-9.15,-38.49,-38.29,0,*66
1484852562.83,7660,2.5,74090.5,-9.17,-38.49,-38.29,0,*6E
1484852564.1,7661,2.5,74094.5,-9.17,-38.43,-38.29,0,*65
1484852565.33,7662,2.5,74088.8,-9.17,-38.43,-38.43,0,*6A
1484852566.62,7663,2.5,74096.5,-9.17,-38.29,-38.23,0,*61
1484852567.9,7664,2.5,74092.3,-9.17,-38.23,-38.11,0,*6D
1484852569.15,7665,2.5,74090.3,-9.15,-38.23,-38.05,0,*6B
1484852570.44,7666,2.5,74090.5,-9.17,-38.29,-38.11,0,*65
1484852571.72,7667,2.5,74090.0,-9.15,-38.29,-38.11,0,*66
1484852573.0,7668,2.5,74088.0,-9.17,-38.23,-38.11,0,*61
1484852574.29,7669,2.5,74088.5,-9.15,-38.29,-38.23,0,*69
1484852575.56,7670,2.5,74090.0,-9.17,-38.49,-38.43,0,*63
1484852576.81,7671,2.5,74090.0,-9.15,-38.43,-38.11,0,*6D
1484852578.06,7672,2.5,74090.8,-9.15,-38.43,-38.11,0,*6E
1484852579.35,7673,2.5,74084.8,-9.17,-38.29,-38.23,0,*60
1484852580.62,7674,2.5,74088.3,-9.17,-38.43,-38.23,0,*6B
1484852581.88,7675,2.5,74088.8,-9.17,-38.43,-38.29,0,*60
1484852583.17,7676,2.5,74088.8,-9.17,-38.29,-38.23,0,*65
1484852584.45,7677,2.5,74092.3,-9.15,-38.29,-38.11,0,*67
1484852585.73,7678,2.5,74088.8,-9.17,-38.29,-38.11,0,*6A
1484852587.02,7679,2.5,74096.3,-9.17,-38.29,-38.11,0,*6B
1484852588.28,7680,2.5,74092.8,-9.17,-38.23,-37.87,0,*67
1484852589.53,7681,2.5,74090.8,-9.15,-38.11,-38.05,0,*60
1484852590.78,7682,2.5,74092.8,-9.17,-38.11,-38.05,0,*61
1484852592.05,7683,2.5,74090.3,-9.17,-38.49,-38.43,0,*6F
1484852593.29,7684,2.5,74094.8,-9.17,-38.61,-38.43,0,*62
1484852594.58,7685,2.5,74094.5,-9.17,-38.49,-38.29,0,*65
1484852595.87,7686,2.5,74092.3,-9.17,-38.49,-38.49,0,*60
1484852597.13,7687,2.5,74090.3,-9.17,-38.43,-38.11,0,*66
1484852598.39,7688,2.5,74094.3,-9.17,-38.43,-38.23,0,*68
1484852599.68,7689,2.5,74094.5,-9.17,-38.49,-38.29,0,*69
1484852600.94,7690,2.5,74090.8,-9.17,-38.43,-38.11,0,*60
1484852602.18,7691,2.5,74092.0,-9.19,-38.35,-38.29,0,*65
1484852603.46,7692,2.5,74090.0,-9.17,-38.29,-38.11,0,*6E
1484852604.75,7693,2.5,74092.5,-9.17,-38.23,-38.23,0,*64
1484852606.0,7694,2.5,74090.5,-9.17,-38.11,-38.05,0,*66
1484852607.26,7695,2.5,74094.8,-9.15,-38.11,-37.87,0,*60
1484852608.46,7696,2.5,74090.3,-9.19,-38.35,-38.17,0,*6F
1484852609.68,7697,2.5,74094.5,-9.19,-38.55,-38.35,0,*68
1484852610.91,7698,2.5,74092.5,-9.19,-38.17,-38.11,0,*67
1484852612.17,7699,2.5,74094.0,-9.19,-38.29,-38.11,0,*6B
1484852613.45,7700,2.5,74092.5,-9.17,-38.29,-38.11,0,*64
1484852614.7,7701,2.5,74090.3,-9.17,-38.23,-38.05,0,*6A
1484852615.96,7702,2.5,74090.3,-9.17,-38.11,-37.87,0,*6D
1484852617.23,7703,2.5,74090.3,-9.17,-38.11,-37.87,0,*6C
1484852618.46,7704,2.5,74088.8,-9.17,-38.61,-38.43,0,*6B
1484852619.7,7705,2.5,74092.3,-9.19,-38.73,-38.67,0,*61
1484852620.93,7706,2.5,74094.5,-9.19,-38.67,-38.55,0,*66
1484852622.17,7707,2.5,74090.3,-9.19,-38.67,-38.35,0,*61
1484852623.41,7708,2.5,74092.8,-9.19,-38.49,-38.35,0,*62
1484852624.64,7709,2.5,74090.8,-9.19,-38.17,-37.93,0,*6B
1484852625.88,7710,2.5,74088.0,-9.19,-38.17,-37.93,0,*63
1484852627.14,7711,2.5,74088.5,-9.19,-38.29,-38.11,0,*6A
1484852628.38,7712,2.5,74088.5,-9.19,-38.49,-38.17,0,*69
1484852629.59,7713,2.5,74090.0,-9.19,-38.17,-37.75,0,*68
1484852630.85,7714,2.5,74088.0,-9.21,-38.11,-37.87,0,*6F
1484852632.11,7715,2.5,74090.5,-9.17,-38.43,-38.23,0,*6D
1484852633.37,7716,2.5,74088.3,-9.17,-38.43,-38.29,0,*64
1484852634.6,7717,2.56,74088.8,-9.19,-38.35,-38.11,0,*61
1484852635.84,7718,2.56,74092.0,-9.19,-38.49,-38.35,0,*63
1484852637.11,7719,2.56,74094.3,-9.19,-38.29,-38.29,0,*69
1484852638.37,7720,2.56,74092.8,-9.19,-38.29,-38.11,0,*68
1484852639.63,7721,2.56,74090.3,-9.19,-38.11,-37.93,0,*67
1484852640.86,7722,2.56,74090.3,-9.19,-38.11,-37.75,0,*6C
1484852642.1,7723,2.5,74090.3,-9.19,-38.11,-37.87,0,*60
1484852643.33,7724,2.56,74088.5,-9.19,-38.11,-37.87,0,*67
1484852644.57,7725,2.56,74094.5,-9.19,-38.11,-37.87,0,*66
1484852645.85,7726,2.56,74092.0,-9.17,-38.11,-38.11,0,*6B
1484852647.14,7727,2.5,74088.8,-9.17,-38.49,-38.29,0,*6C
1484852648.4,7728,2.56,74094.5,-9.17,-38.11,-37.87,0,*65
1484852649.63,7729,2.5,74088.3,-9.17,-38.05,-38.05,0,*64
1484852650.86,7730,2.5,74086.3,-9.19,-38.17,-37.93,0,*61
1484852652.1,7731,2.56,74090.3,-9.19,-38.17,-38.11,0,*65
1484852653.36,7732,2.56,74090.8,-9.15,-38.05,-37.81,0,*6F
1484852654.6,7733,2.5,74090.3,-9.19,-37.99,-37.87,0,*6E
1484852655.82,7734,2.56,74094.0,-9.17,-38.05,-38.05,0,*68
1484852657.06,7735,2.56,74094.0,-9.19,-38.29,-38.17,0,*6A
1484852658.35,7736,2.56,74092.5,-9.17,-38.29,-38.11,0,*61
1484852659.64,7737,2.5,74088.5,-9.17,-38.29,-38.23,0,*61
1484852660.91,7738,2.56,74092.3,-9.17,-38.23,-38.11,0,*65
1484852662.13,7739,2.56,74092.8,-9.19,-38.55,-38.35,0,*6D
1484852663.37,7740,2.56,74094.0,-9.19,-38.49,-38.35,0,*6E
1484852664.61,7741,2.56,74090.8,-9.19,-38.35,-38.29,0,*69
1484852665.88,7742,2.56,74092.0,-9.19,-38.49,-38.29,0,*61
1484852667.12,7743,2.56,74090.0,-9.17,-38.05,-37.87,0,*6D
1484852668.38,7744,2.56,74090.3,-9.19,-37.93,-37.51,0,*6F
1484852669.61,7745,2.5,74090.5,-9.19,-37.99,-37.75,0,*62
1484852670.87,7746,2.56,74092.5,-9.19,-38.11,-38.11,0,*63
1484852672.12,7747,2.56,74090.0,-9.17,-38.23,-38.05,0,*68
1484852673.36,7748,2.56,74094.3,-9.19,-38.49,-38.17,0,*66
1484852674.6,7749,2.56,74090.0,-9.19,-38.49,-38.35,0,*67
1484852675.84,7750,2.56,74088.8,-9.19,-38.17,-37.93,0,*67
1484852677.07,7751,2.56,74088.0,-9.19,-37.99,-37.75,0,*67
1484852678.33,7752,2.5,74084.0,-9.19,-37.99,-37.69,0,*69
1484852679.58,7753,2.56,74090.0,-9.17,-38.23,-38.05,0,*6D
1484852680.85,7754,2.56,74092.3,-9.17,-38.23,-37.87,0,*6F
1484852682.13,7755,2.56,74090.0,-9.17,-38.23,-38.11,0,*6E
1484852683.39,7756,2.56,74092.5,-9.17,-38.49,-38.43,0,*66
1484852684.65,7757,2.56,74090.8,-9.17,-38.43,-38.23,0,*6B
1484852685.89,7758,2.56,74090.3,-9.19,-38.17,-38.11,0,*6A
1484852687.15,7759,2.56,74094.0,-9.19,-38.29,-38.11,0,*66
1484852688.43,7760,2.56,74088.0,-9.17,-38.23,-37.93,0,*6D
1484852689.69,7761,2.56,74090.3,-9.17,-38.05,-37.81,0,*6B
1484852690.94,7762,2.5,74088.5,-9.17,-38.05,-37.69,0,*6E
1484852692.2,7763,2.5,74090.5,-9.17,-38.05,-37.81,0,*69
1484852693.46,7764,2.56,74094.0,-9.17,-38.23,-38.05,0,*69
1484852694.72,7765,2.5,74088.0,-9.17,-38.11,-37.87,0,*6C
1484852695.97,7766,2.56,74092.8,-9.17,-38.05,-37.69,0,*6A
1484852697.25,7767,2.5,74090.3,-9.17,-38.23,-38.11,0,*6F
1484852698.49,7768,2.56,74090.0,-9.17,-38.43,-38.43,0,*61
1484852699.75,7769,2.56,74092.8,-9.17,-38.61,-38.49,0,*6A
1484852701.0,7770,2.56,74088.5,-9.17,-38.23,-38.05,0,*6C
1484852702.26,7771,2.56,74090.8,-9.17,-38.11,-37.87,0,*69
1484852703.53,7772,2.56,74094.5,-9.17,-38.05,-37.81,0,*69
1484852704.81,7773,2.56,74092.0,-9.17,-38.23,-38.11,0,*6A
1484852706.08,7774,2.56,74094.3,-9.15,-38.23,-38.11,0,*6F
1484852707.33,7775,2.56,74090.5,-9.17,-38.11,-38.05,0,*68
1484852708.63,7776,2.56,74092.8,-9.17,-38.29,-38.23,0,*64
1484852709.88,7777,2.56,74092.3,-9.15,-38.11,-38.05,0,*68
1484852711.11,7778,2.56,74090.3,-9.19,-38.11,-37.87,0,*6E
1484852712.34,7779,2.56,74090.8,-9.19,-38.17,-38.11,0,*69
1484852713.63,7780,2.56,74092.0,-9.17,-38.23,-38.23,0,*67
1484852714.89,7781,2.56,74088.8,-9.17,-38.11,-37.87,0,*66
1484852716.17,7782,2.56,74094.3,-9.17,-37.93,-37.69,0,*60
1484852717.43,7783,2.56,74088.8,-9.17,-38.11,-37.87,0,*64
1484852718.71,7784,2.56,74090.8,-9.17,-38.11,-38.11,0,*63
1484852719.97,7785,2.56,74088.8,-9.17,-38.05,-37.81,0,*61
1484852721.23,7786,2.56,74090.0,-9.17,-38.05,-37.81,0,*62
1484852722.49,7787,2.56,74092.3,-9.17,-38.05,-37.81,0,*63
1484852723.75,7788,2.56,74092.0,-9.17,-38.11,-38.05,0,*6A
1484852724.98,7789,2.56,74090.5,-9.17,-38.05,-37.87,0,*6B
1484852726.26,7790,2.56,74092.5,-9.17,-38.11,-38.11,0,*66
1484852727.53,7791,2.56,74088.8,-9.17,-37.87,-37.51,0,*6C
1484852728.81,7792,2.56,74092.3,-9.17,-37.93,-37.69,0,*61
1484852730.05,7793,2.56,74088.0,-9.17,-38.05,-37.87,0,*60
1484852731.31,7794,2.56,74088.0,-9.17,-37.87,-37.51,0,*69
1484852732.6,7795,2.56,74090.3,-9.17,-37.93,-37.81,0,*60
1484852733.86,7796,2.56,74090.3,-9.17,-37.87,-37.69,0,*60
1484852735.15,7797,2.56,74092.3,-9.17,-37.93,-37.81,0,*62
1484852736.43,7798,2.56,74094.5,-9.17,-37.93,-37.69,0,*6B
1484852737.71,7799,2.56,74092.8,-9.15,-37.93,-37.69,0,*68
1484852739.0,7800,2.56,74094.0,-9.17,-37.93,-37.81,0,*63
1484852740.26,7801,2.56,74094.0,-9.17,-37.87,-37.81,0,*67
1484852741.51,7802,2.56,74096.0,-9.17,-38.11,-38.05,0,*67
1484852742.79,7803,2.56,74096.0,-9.17,-38.11,-38.11,0,*63
1484852744.09,7804,2.56,74092.3,-9.17,-37.81,-37.51,0,*69
1484852745.38,7805,2.56,74096.8,-9.17,-37.81,-37.63,0,*69
1484852746.66,7806,2.56,74092.8,-9.15,-37.93,-37.69,0,*61
1484852747.92,7807,2.56,74098.5,-9.15,-37.81,-37.45,0,*6D
1484852749.15,7808,2.56,74094.0,-9.15,-37.87,-37.45,0,*64
1484852750.43,7809,2.56,74094.5,-9.15,-37.93,-37.69,0,*6E
1484852751.68,7810,2.56,74094.0,-9.15,-38.05,-37.69,0,*66
1484852752.96,7811,2.56,74092.3,-9.15,-37.93,-37.69,0,*67
1484852754.22,7812,2.56,74094.3,-9.15,-38.11,-37.87,0,*61
1484852755.5,7813,2.56,74094.3,-9.15,-38.11,-38.11,0,*60
1484852756.75,7814,2.56,74096.5,-9.15,-38.11,-38.05,0,*62
1484852757.98,7815,2.56,74098.5,-9.15,-38.05,-37.87,0,*63
1484852759.24,7816,2.56,74094.0,-9.15,-37.87,-37.69,0,*65
1484852760.48,7817,2.56,74096.8,-9.15,-38.05,-37.87,0,*61
1484852761.74,7818,2.56,74100.0,-9.15,-38.23,-37.87,0,*6A
1484852762.95,7819,2.56,74096.0,-9.13,-37.87,-37.75,0,*61
1484852764.21,7820,2.56,74092.8,-9.13,-37.99,-37.81,0,*6F
1484852765.48,7821,2.56,74094.5,-9.15,-37.93,-37.87,0,*64
1484852766.75,7822,2.56,74098.0,-9.15,-38.11,-38.11,0,*62
1484852767.99,7823,2.56,74100.3,-9.15,-38.05,-37.87,0,*66
1484852769.26,7824,2.56,74098.5,-9.15,-38.11,-38.11,0,*64
1484852770.47,7825,2.56,74096.0,-9.13,-38.17,-38.05,0,*60
1484852771.67,7826,2.56,74094.8,-9.13,-38.17,-38.05,0,*63
1484852772.93,7827,2.56,74098.8,-9.15,-38.11,-37.87,0,*67
1484852774.17,7828,2.56,74090.8,-9.15,-38.05,-37.87,0,*6D
1484852775.43,7829,2.56,74092.0,-9.15,-38.05,-37.81,0,*6A
1484852776.69,7830,2.56,74094.3,-9.15,-38.11,-37.87,0,*61
1484852777.94,7831,2.56,74094.5,-9.15,-38.05,-37.81,0,*63
1484852779.21,7832,2.56,74098.0,-9.17,-38.11,-37.87,0,*61
1484852780.49,7833,2.56,74094.0,-9.15,-38.23,-38.23,0,*62
1484852781.7,7834,2.56,74094.8,-9.13,-38.17,-38.17,0,*63
1484852782.96,7835,2.56,74098.5,-9.13,-37.99,-37.99,0,*62
1484852784.24,7836,2.56,74102.0,-9.15,-38.23,-38.11,0,*66
1484852785.51,7837,2.56,74098.5,-9.15,-38.11,-38.11,0,*66
1484852786.8,7838,2.56,74096.0,-9.15,-37.93,-37.81,0,*6A
1484852788.08,7839,2.56,74098.0,-9.15,-38.11,-38.23,0,*69
1484852789.34,7840,2.56,74092.8,-9.13,-38.23,-38.23,0,*60
1484852790.58,7841,2.56,74092.0,-9.15,-38.43,-38.43,0,*67
1484852791.87,7842,2.56,74090.8,-9.15,-38.29,-38.23,0,*6E
1484852793.12,7843,2.56,74094.8,-9.15,-38.23,-38.43,0,*63
1484852794.41,7844,2.56,74098.0,-9.17,-38.29,-38.29,0,*60
1484852795.69,7845,2.56,74094.5,-9.15,-38.23,-38.11,0,*62
1484852796.98,7846,2.56,74094.5,-9.15,-38.29,-38.23,0,*6A
1484852798.26,7847,2.56,74090.3,-9.15,-38.23,-38.23,0,*61
1484852799.53,7848,2.56,74096.8,-9.15,-38.29,-38.43,0,*62
1484852800.81,7849,2.56,74092.0,-9.17,-38.23,-38.11,0,*6C
1484852802.08,7850,2.56,74090.8,-9.17,-38.11,-38.11,0,*65
1484852803.29,7851,2.56,74096.3,-9.13,-38.05,-38.05,0,*60
1484852804.56,7852,2.56,74088.3,-9.15,-38.11,-38.11,0,*65
1484852805.84,7853,2.56,74090.3,-9.17,-38.11,-38.11,0,*66
1484852807.13,7854,2.56,74098.0,-9.17,-38.11,-38.23,0,*60
1484852808.38,7855,2.56,74096.8,-9.15,-38.05,-38.11,0,*67
1484852809.63,7856,2.56,74098.3,-9.17,-38.11,-38.05,0,*66
1484852810.92,7857,2.56,74098.5,-9.17,-37.93,-37.81,0,*61
1484852812.21,7858,2.56,74092.5,-9.17,-38.11,-38.23,0,*6C
1484852813.49,7859,2.56,74100.3,-9.17,-38.23,-38.23,0,*6C
1484852814.78,7860,2.56,74092.8,-9.15,-38.29,-38.29,0,*64
1484852816.02,7861,2.56,74092.5,-9.17,-38.05,-37.87,0,*62
1484852817.3,7862,2.56,74092.8,-9.15,-38.11,-38.11,0,*66
1484852818.58,7863,2.56,74094.8,-9.17,-38.11,-38.23,0,*64
1484852819.83,7864,2.56,74092.3,-9.17,-38.11,-38.05,0,*67
1484852821.11,7865,2.56,74090.5,-9.17,-38.11,-38.11,0,*63
1484852822.39,7866,2.56,74088.3,-9.15,-38.23,-38.11,0,*63
1484852823.67,7867,2.56,74090.0,-9.17,-38.23,-38.11,0,*60
1484852824.9,7868,2.56,74090.5,-9.15,-38.05,-37.87,0,*69
1484852826.13,7869,2.56,74092.3,-9.17,-38.05,-38.05,0,*6F
1484852827.39,7870,2.56,74090.8,-9.15,-37.87,-37.69,0,*65
1484852828.65,7871,2.56,74094.0,-9.17,-37.87,-37.69,0,*66
1484852829.92,7872,2.56,74090.3,-9.17,-37.87,-37.81,0,*63
1484852831.2,7873,2.56,74092.8,-9.17,-37.93,-37.81,0,*67
1484852832.46,7874,2.56,74090.3,-9.17,-37.93,-38.05,0,*63
1484852833.72,7875,2.56,74090.5,-9.15,-37.87,-37.69,0,*60
1484852835.0,7876,2.56,74090.3,-9.15,-37.93,-37.81,0,*60
1484852836.26,7877,2.56,74090.0,-9.15,-37.93,-38.05,0,*62
1484852837.52,7878,2.56,74090.5,-9.15,-37.93,-37.87,0,*68
1484852838.8,7879,2.56,74090.3,-9.17,-37.93,-37.69,0,*6B
1484852840.09,7880,2.56,74090.0,-9.17,-37.93,-37.81,0,*6B
1484852841.35,7881,2.56,74090.0,-9.15,-37.87,-37.81,0,*6D
1484852842.65,7882,2.56,74088.0,-9.15,-37.81,-37.63,0,*64
1484852843.93,7883,2.56,74088.8,-9.15,-37.69,-37.51,0,*62
1484852845.22,7884,2.56,74092.5,-9.15,-37.81,-37.69,0,*68
1484852846.47,7885,2.56,74092.0,-9.15,-37.93,-38.05,0,*6F
1484852847.73,7886,2.56,74090.0,-9.15,-37.93,-37.87,0,*69
1484852849.02,7887,2.56,74088.5,-9.15,-37.81,-37.69,0,*6B
1484852850.23,7888,2.56,74090.3,-9.13,-37.75,-37.75,0,*64
1484852851.47,7889,2.56,74090.5,-9.13,-37.87,-37.81,0,*63
1484852852.71,7890,2.56,74090.3,-9.13,-37.81,-37.75,0,*66
1484852853.95,7891,2.56,74090.8,-9.11,-37.87,-37.75,0,*63
1484852855.18,7892,2.56,74090.5,-9.13,-37.99,-38.05,0,*65
1484852856.39,7893,2.56,74092.0,-9.13,-38.17,-38.17,0,*6E
1484852857.63,7894,2.56,74090.5,-9.13,-37.87,-37.81,0,*6F
1484852858.87,7895,2.56,74086.5,-9.13,-37.87,-37.81,0,*6E
1484852860.08,7896,2.56,74086.5,-9.13,-37.87,-38.17,0,*6D
1484852861.29,7897,2.56,74086.8,-9.13,-38.05,-38.17,0,*69
1484852862.52,7898,2.56,74090.0,-9.13,-38.23,-38.35,0,*62
1484852863.78,7899,2.56,74088.8,-9.15,-38.05,-38.11,0,*67
1484852865.05,7900,2.56,74090.5,-9.11,-37.87,-37.81,0,*61
1484852866.29,7901,2.56,74088.0,-9.13,-37.87,-37.81,0,*62
1484852867.53,7902,2.56,74088.0,-9.13,-37.87,-37.99,0,*68
1484852868.79,7903,2.56,74090.3,-9.13,-37.99,-37.99,0,*66
1484852870.03,7904,2.56,74094.0,-9.13,-37.99,-38.17,0,*68
1484852871.26,7905,2.56,74088.8,-9.13,-37.99,-38.17,0,*69
1484852872.5,7906,2.56,74088.5,-9.13,-37.87,-37.81,0,*65
1484852873.72,7907,2.56,74090.0,-9.13,-37.87,-38.17,0,*64
1484852874.92,7908,2.56,74090.3,-9.13,-38.05,-38.05,0,*6D
1484852876.16,7909,2.56,74090.0,-9.13,-38.05,-38.23,0,*68
1484852877.37,7910,2.56,74090.0,-9.13,-37.87,-38.05,0,*61
1484852878.58,7911,2.56,74092.0,-9.13,-37.87,-38.17,0,*63
1484852879.82,7912,2.56,74086.8,-9.13,-37.87,-37.99,0,*69
1484852881.09,7913,2.56,74088.5,-9.13,-37.81,-37.99,0,*6E
1484852882.3,7914,2.56,74088.8,-9.13,-38.05,-38.35,0,*63
1484852883.54,7915,2.56,74094.0,-9.13,-37.87,-37.81,0,*67
1484852884.76,7916,2.56,74090.0,-9.13,-37.87,-38.17,0,*64
1484852886.04,7917,2.56,74088.5,-9.15,-38.23,-38.29,0,*6F
1484852887.25,7918,2.56,74092.5,-9.13,-37.87,-38.17,0,*6A
1484852888.52,7919,2.56,74090.8,-9.13,-37.81,-37.81,0,*6D
1484852889.76,7920,2.56,74094.3,-9.13,-37.87,-37.99,0,*68
1484852891.01,7921,2.56,74090.3,-9.13,-37.87,-37.81,0,*60
1484852892.21,7922,2.56,74090.0,-9.13,-37.57,-37.75,0,*65
1484852893.44,7923,2.56,74090.0,-9.13,-37.99,-38.05,0,*6E
1484852894.68,7924,2.56,74090.8,-9.13,-38.05,-38.23,0,*67
1484852895.92,7925,2.56,74090.0,-9.13,-37.99,-38.17,0,*6B
1484852897.18,7926,2.56,74090.0,-9.13,-37.99,-38.23,0,*6F
1484852898.42,7927,2.56,74090.3,-9.13,-37.99,-38.35,0,*69
1484852899.65,7928,2.63,74094.3,-9.13,-38.05,-38.23,0,*6B
1484852900.86,7929,2.56,74090.0,-9.13,-37.87,-38.05,0,*6B
1484852902.1,7930,2.63,74092.3,-9.13,-37.99,-38.17,0,*6F
1484852903.33,7931,2.56,74092.0,-9.13,-37.99,-38.17,0,*6E
1484852904.57,7932,2.56,74092.3,-9.13,-37.87,-38.23,0,*65
1484852905.81,7933,2.56,74090.3,-9.13,-37.99,-38.17,0,*6C
1484852907.04,7934,2.56,74088.0,-9.13,-37.99,-38.35,0,*6B
1484852908.28,7935,2.56,74092.0,-9.13,-38.05,-38.23,0,*67
1484852909.52,7936,2.56,74090.0,-9.13,-38.05,-38.23,0,*64
1484852910.77,7937,2.63,74092.3,-9.11,-37.99,-38.05,0,*69
1484852911.98,7938,2.56,74094.8,-9.13,-38.05,-38.17,0,*6D
1484852913.24,7939,2.56,74092.3,-9.15,-38.05,-38.29,0,*67
1484852914.5,7940,2.56,74094.0,-9.15,-38.29,-38.61,0,*6B
1484852915.78,7941,2.63,74092.5,-9.15,-38.23,-38.49,0,*6A
1484852917.04,7942,2.56,74090.0,-9.15,-38.11,-38.43,0,*62
1484852918.32,7943,2.56,74090.8,-9.15,-38.23,-38.49,0,*68
1484852919.58,7944,2.56,74088.5,-9.15,-38.05,-38.11,0,*66
1484852920.81,7945,2.63,74094.8,-9.15,-38.05,-38.43,0,*60
1484852922.07,7946,2.56,74092.8,-9.15,-38.11,-38.43,0,*66